RH
25 24 25 26 27 28 28 29 31 32 32 33 35 36 38 40 43 47 50 53 55 58 62 65 67 68 68 67 63 58 53 50 50 53 55 58 62 65 66 66 64 61 56 55 53 50 48 44 41 39 36 33 33 32 31 31 30 29 26 24 22 21 20
40 37 35 34 33 32 32 31 32 32 33 34 36 38 40 43 46 49 52 55 58 62 66 69 72 73 73 72 68 61 55 51 51 54 57 61 65 67 69 69 68 64 60 58 55 52 48 43 39 37 35 32 32 32 31 30 29 28 26 23 20 19 18
57 57 55 50 47 44 40 37 35 35 35 35 38 40 43 46 48 51 54 57 62 66 70 74 77 78 78 76 71 64 58 55 55 59 61 64 68 71 72 73 71 67 63 60 57 52 47 42 38 35 33 32 31 31 30 29 28 26 24 21 18 17 16
67 70 70 68 65 61 56 50 45 41 40 39 40 43 46 49 51 53 57 61 65 71 76 80 82 83 82 79 73 66 62 60 61 65 68 69 73 76 76 76 73 68 63 60 57 53 45 39 36 33 31 31 31 30 29 28 26 24 22 19 17 15 13
70 75 79 81 81 80 76 70 63 56 52 48 47 46 48 52 55 57 61 65 70 76 82 85 86 86 83 79 74 70 67 66 67 70 73 75 78 81 80 77 74 67 61 58 55 51 44 38 34 31 30 29 29 28 27 25 23 21 19 17 16 13 11
66 73 80 86 90 91 90 86 81 75 69 64 58 53 53 57 60 62 66 70 75 82 87 89 88 86 82 79 76 74 71 71 72 74 76 78 81 83 80 76 71 65 58 55 51 47 41 36 31 30 29 28 28 27 25 23 21 19 18 16 14 12 10
57 66 76 85 91 95 95 94 92 90 87 84 76 66 61 64 67 69 72 77 82 88 91 90 87 84 81 80 79 78 76 76 76 76 77 80 83 82 79 74 68 63 57 51 47 41 36 32 29 28 28 27 26 24 23 22 19 18 16 14 12 11 10
48 56 68 80 89 96 98 99 99 98 98 98 94 84 75 73 77 79 82 88 92 93 91 88 85 84 82 82 82 81 80 79 78 78 78 80 83 81 78 73 67 62 56 48 43 38 32 29 28 27 26 26 25 24 22 21 19 17 15 13 11 10 10
44 47 54 65 80 93 100 101 101 101 100 101 101 98 88 83 87 91 95 99 98 93 89 86 85 84 84 84 84 83 82 81 80 79 79 82 84 81 77 72 66 60 53 46 40 35 30 28 27 26 26 26 26 24 23 21 19 17 14 13 12 10 11
41 44 47 53 67 87 99 101 100 100 101 100 101 102 97 93 96 100 101 102 99 93 89 87 86 86 86 86 85 85 84 82 80 80 82 84 84 82 77 70 64 58 50 43 37 33 30 29 28 27 27 28 27 25 23 21 19 17 14 13 12 11 12
39 42 47 51 62 82 98 101 100 100 100 100 100 101 101 100 101 101 100 101 100 95 90 88 88 87 87 86 87 87 85 82 81 82 84 85 84 81 75 68 62 54 46 39 35 32 30 29 28 29 30 29 28 26 23 20 19 17 15 14 13 11 12
43 45 49 54 64 82 97 101 100 100 100 100 100 100 101 102 101 100 100 101 99 94 91 90 90 89 88 87 88 87 84 83 84 85 85 86 82 76 71 65 58 50 42 37 34 32 30 29 30 32 32 30 28 26 23 20 18 17 15 14 15 13 15
51 53 56 60 71 87 99 100 100 100 100 100 100 100 100 101 101 101 101 98 94 91 91 92 92 90 87 88 90 90 88 87 89 88 87 85 80 73 67 60 52 45 39 35 33 31 30 31 33 33 32 32 29 26 23 21 19 18 17 16 19 20 23
61 63 64 70 82 95 101 100 100 100 100 101 101 100 100 100 101 101 99 94 90 91 93 94 95 92 89 88 91 94 93 92 91 90 87 83 76 69 62 53 47 42 38 35 34 33 32 34 37 36 34 33 31 27 24 21 19 19 20 22 25 28 33
72 75 77 84 94 100 100 99 100 100 100 101 101 100 100 100 99 98 94 90 88 91 93 93 93 92 91 89 89 90 93 92 91 89 85 79 73 65 57 49 44 41 39 38 37 37 37 38 39 38 36 34 32 29 25 22 21 22 26 30 32 35 41
86 89 93 96 100 101 100 100 100 100 100 101 100 100 100 100 98 94 90 88 88 90 91 91 91 91 92 91 89 89 91 91 89 86 82 76 69 61 54 48 44 42 41 40 41 42 42 42 41 40 39 37 34 29 25 23 23 27 34 39 41 44 50
96 98 100 100 100 100 100 100 100 100 100 100 100 101 100 100 99 96 93 92 93 94 94 93 94 95 94 92 91 91 91 90 87 84 79 73 67 60 54 48 45 44 42 41 44 45 45 45 44 42 41 39 35 30 29 28 28 32 41 47 49 51 52
99 100 100 100 100 100 100 100 100 100 100 100 100 100 100 100 99 97 97 98 98 99 99 97 97 97 95 93 92 92 92 90 86 82 77 71 65 59 52 47 45 45 44 44 46 48 49 48 46 44 42 40 37 34 34 36 38 43 51 53 54 54 51
100 100 100 100 100 100 100 100 100 100 100 100 100 100 100 100 98 97 99 101 101 101 99 98 97 96 96 96 96 95 94 90 84 80 74 69 64 57 50 47 47 47 47 48 50 52 52 50 48 46 44 41 39 37 38 44 52 59 63 60 58 55 51
100 100 100 100 100 100 100 100 100 100 100 100 100 100 100 99 99 99 100 101 101 100 97 96 96 96 98 99 97 95 93 88 83 78 72 67 62 55 50 50 51 51 50 52 55 56 55 52 50 49 47 46 46 46 49 58 67 73 72 65 60 56 50
100 100 100 100 100 100 100 100 100 100 100 100 100 100 100 100 100 99 99 100 100 100 99 98 97 98 100 100 97 94 91 87 81 76 70 63 58 54 52 52 52 54 57 59 60 59 57 55 54 53 52 51 51 54 60 69 76 79 74 66 59 54 45
100 100 100 100 100 100 100 100 100 100 100 100 100 100 100 101 100 99 100 100 100 100 100 98 97 98 100 99 96 93 89 83 79 74 67 60 56 56 56 54 55 60 64 64 63 60 58 57 57 56 54 52 53 59 68 77 81 79 72 64 56 47 38
100 100 100 100 100 100 100 100 100 100 100 100 100 100 100 101 100 101 102 101 99 97 97 95 95 96 98 97 94 91 86 80 74 70 65 62 61 60 59 62 66 69 68 66 64 61 58 58 58 57 55 55 58 64 74 83 83 77 69 60 49 40 35
100 100 100 100 100 100 100 100 100 100 100 100 100 100 101 101 102 103 104 103 100 96 94 94 95 96 97 96 92 87 82 76 70 67 65 65 66 67 70 74 76 74 71 68 65 62 59 60 60 59 60 61 64 71 80 85 82 73 64 52 42 37 37
100 100 100 100 100 100 100 100 100 100 100 100 100 101 102 103 104 104 104 104 102 99 96 95 97 97 96 93 88 83 79 74 72 72 72 72 74 78 83 83 80 77 74 70 65 62 61 61 62 63 64 66 70 77 83 84 78 67 55 45 39 38 39
100 100 100 100 100 100 100 101 101 100 100 100 101 102 103 103 103 102 103 103 103 102 100 98 97 96 93 90 87 83 80 80 82 85 84 84 86 90 91 88 84 80 75 69 65 63 62 63 64 66 68 71 75 82 85 81 71 58 47 42 39 39 42
100 100 100 100 100 100 100 101 100 100 101 102 102 102 102 102 100 101 102 103 103 103 102 99 97 94 90 88 87 87 87 91 96 98 96 95 96 96 94 90 86 80 74 68 65 64 64 65 66 69 73 77 81 86 85 75 61 50 43 41 39 43 52
101 100 100 101 100 100 100 100 100 101 103 103 102 101 100 100 101 101 102 103 103 103 101 98 96 93 90 89 91 93 96 99 102 103 102 101 101 99 94 89 84 79 74 70 68 68 67 68 70 74 79 83 86 88 81 66 52 45 41 41 44 53 62
100 100 100 101 101 101 102 101 101 103 104 103 101 100 100 100 102 103 103 104 104 102 100 97 95 94 93 94 97 100 101 101 102 102 101 101 101 99 94 88 82 78 74 72 72 71 70 72 76 80 84 88 90 85 71 55 46 42 42 48 56 62 65
101 101 101 102 103 103 103 104 103 104 105 102 100 100 100 102 104 104 104 105 104 101 98 96 96 97 97 99 101 102 101 101 102 102 102 102 101 98 93 87 82 79 77 75 74 72 73 77 81 84 89 92 87 74 59 48 44 44 48 57 63 63 62
102 103 104 105 106 106 105 105 104 103 103 101 100 101 101 103 105 104 104 105 103 99 96 95 97 99 101 102 103 102 101 101 102 102 103 104 101 96 92 88 84 81 79 76 75 75 78 83 86 88 92 91 79 64 53 46 45 48 55 62 64 61 60
92 97 100 103 105 105 106 106 104 102 99 97 97 98 99 101 102 103 104 104 101 97 96 98 101 103 104 104 103 102 101 101 101 102 103 104 101 96 93 89 85 83 80 78 77 79 83 87 90 92 93 88 74 59 50 47 48 54 61 63 62 61 61
81 87 93 95 96 97 98 99 101 102 101 99 98 97 97 99 100 100 102 103 99 96 99 102 104 105 105 103 101 101 101 101 101 102 103 103 101 98 94 92 88 84 82 80 79 82 88 92 94 96 95 87 72 57 50 51 56 60 62 62 62 62 62
72 79 86 88 90 91 91 92 94 95 97 99 100 100 100 102 102 101 102 103 100 96 97 101 104 104 104 103 101 100 101 101 101 102 102 102 101 99 96 94 91 86 84 82 81 85 92 96 99 100 95 82 67 55 53 57 61 62 63 63 63 62 61
72 76 79 80 82 85 90 92 92 91 89 90 93 97 101 103 104 104 104 105 103 100 97 98 101 102 103 104 103 101 101 101 101 102 102 102 102 101 98 95 92 88 85 82 82 87 95 99 102 102 92 74 60 54 56 60 63 64 65 65 63 61 60
82 82 81 80 79 81 86 89 88 87 86 85 87 92 97 99 102 105 105 103 102 101 100 98 97 96 98 101 103 104 104 103 101 102 102 102 102 101 99 96 93 90 85 83 83 89 95 100 103 101 87 69 58 56 59 63 66 67 67 65 62 60 61
Wind_Speed
55 55 54 54 55 55 54 54 54 54 55 55 55 54 53 52 50 49 48 47 47 46 46 47 48 48 47 47 47 47 47 47 48 48 49 50 51 51 51 51 52 52 52 52 52 52 51 51 51 50 50 49 50 50 50 50 50 49 49 49 50 52 53
55 56 56 57 57 57 57 57 56 56 56 56 56 56 54 53 52 51 50 49 48 48 48 49 50 49 48 48 48 48 48 48 48 49 50 50 51 51 52 52 52 52 53 52 52 52 51 50 50 50 49 49 49 50 50 50 51 50 50 49 50 51 53
55 56 57 58 59 59 59 59 59 58 58 58 58 57 56 55 53 52 51 50 50 49 50 50 50 50 49 49 49 48 48 48 48 49 49 50 51 52 52 52 52 52 53 52 52 52 51 50 50 50 49 49 49 50 50 50 51 51 51 50 50 51 52
54 55 56 57 59 60 60 60 60 60 59 59 60 59 58 56 55 54 52 51 51 50 50 50 51 50 50 50 50 49 48 48 48 48 49 50 51 51 51 52 52 52 52 52 52 52 51 50 50 50 49 49 49 50 50 51 51 51 51 51 50 50 51
55 55 56 57 58 59 59 59 60 60 60 61 61 60 59 58 56 55 54 53 52 51 51 50 50 50 50 50 50 49 49 49 48 48 48 49 50 50 51 51 51 51 51 52 52 52 51 50 49 49 49 49 49 49 50 51 51 51 51 51 50 50 50
56 56 57 57 57 57 58 59 59 60 61 61 62 62 61 59 58 56 55 54 53 52 51 51 51 50 50 50 50 49 49 49 48 48 48 48 49 49 50 50 50 50 51 51 52 52 51 49 48 49 49 48 48 49 50 51 51 51 51 51 51 50 50
54 56 57 57 57 57 58 59 60 61 62 62 63 62 62 60 59 57 56 54 53 52 52 51 51 50 50 50 49 49 49 48 48 48 48 48 48 49 49 50 50 50 50 50 51 50 50 49 48 48 48 48 48 49 49 50 50 51 51 51 50 50 49
48 52 55 57 58 57 57 58 60 62 63 63 63 63 62 60 59 58 56 54 53 52 52 52 51 51 51 50 49 49 48 48 48 48 48 48 48 49 49 49 49 49 50 49 49 49 48 48 48 48 48 47 47 48 48 48 50 51 51 51 50 50 48
45 48 51 55 57 58 58 59 61 63 64 63 63 62 61 60 59 57 55 54 54 53 52 51 51 51 51 50 49 48 48 48 48 48 48 48 48 49 49 49 49 49 49 49 48 48 47 48 48 47 47 47 47 47 47 47 49 50 50 50 50 48 46
48 49 50 52 55 57 58 59 61 63 64 63 63 63 62 60 58 56 55 54 54 53 52 51 52 51 50 49 49 48 47 47 48 48 48 48 49 49 49 49 48 48 48 48 47 47 47 47 46 46 46 46 46 46 47 47 47 48 48 48 49 47 45
52 52 52 52 53 56 57 58 60 62 64 64 63 63 62 60 57 56 55 54 53 52 52 52 52 50 49 49 48 47 47 48 48 48 48 48 49 49 49 48 48 48 47 47 46 46 46 46 45 45 45 46 46 46 46 46 46 46 46 46 47 47 44
53 54 54 54 54 55 56 57 59 62 64 64 63 61 60 58 57 55 54 53 53 53 52 52 51 49 48 48 48 47 47 48 48 48 48 48 48 48 48 48 47 47 46 45 46 45 45 44 44 44 45 45 45 45 46 46 45 45 44 43 44 44 43
54 54 55 54 54 54 55 56 58 61 63 63 61 58 56 55 55 54 53 53 53 53 52 51 50 48 48 48 47 47 47 47 48 48 48 48 48 47 47 46 46 45 44 44 44 44 44 43 43 44 44 43 44 45 46 46 44 44 43 42 41 41 41
54 54 54 53 52 52 54 55 57 60 61 59 57 55 53 52 52 53 53 54 53 52 51 49 48 48 48 47 45 45 46 47 47 48 47 47 47 46 46 45 44 43 42 43 43 44 43 42 42 43 43 42 43 45 45 45 43 42 42 41 39 39 39
52 52 51 49 49 50 52 53 54 56 56 55 53 52 52 52 52 53 54 53 52 51 49 48 48 47 47 46 46 44 45 47 47 47 47 46 46 45 44 43 42 40 40 41 42 42 42 42 41 41 42 42 43 44 44 43 42 41 41 40 39 38 38
47 46 45 44 45 47 47 48 50 52 52 51 51 51 52 53 53 53 53 53 51 50 49 48 48 47 46 46 46 45 44 46 46 47 46 45 44 43 43 42 40 39 40 41 41 41 41 41 40 40 41 42 43 43 44 43 41 40 39 38 39 38 37
43 41 40 39 38 39 40 42 45 48 49 49 50 51 52 52 52 52 51 50 49 49 49 48 47 46 46 46 46 45 44 45 45 46 45 44 43 43 42 41 38 38 40 40 39 39 39 39 39 39 40 41 42 43 43 42 41 39 37 37 38 38 36
40 38 37 35 34 35 37 40 43 46 48 49 49 49 50 50 50 50 49 48 48 48 47 47 45 45 46 47 46 45 44 44 44 44 44 43 42 42 42 39 37 38 40 39 38 38 37 37 38 39 40 40 41 41 41 40 40 38 37 37 37 37 37
38 37 36 35 35 37 39 42 44 46 47 47 47 47 48 48 49 49 48 47 47 47 47 46 45 44 45 46 46 45 43 43 42 43 43 42 42 42 40 38 37 38 39 38 37 36 35 36 37 38 39 40 40 40 40 39 38 37 36 37 37 37 38
37 37 37 37 38 40 41 42 43 44 44 44 44 45 46 47 48 48 48 47 47 48 47 46 45 44 44 45 45 44 44 42 41 41 42 42 43 42 40 37 37 38 38 37 35 35 34 35 36 37 38 38 38 39 39 38 37 36 36 37 37 38 39
38 39 40 40 41 42 43 43 44 44 44 44 44 44 45 46 48 49 49 48 47 48 48 46 45 44 43 44 45 44 43 41 40 40 41 42 42 41 40 39 37 36 35 35 34 34 34 34 35 35 36 37 37 38 37 37 36 35 35 36 37 38 38
40 41 42 42 43 44 44 44 44 44 44 44 44 45 45 47 48 49 49 49 49 48 47 46 45 44 42 43 44 43 42 41 40 40 41 42 41 39 39 39 37 34 33 33 33 33 33 33 33 34 35 35 36 36 36 35 35 35 35 35 36 37 38
41 42 42 43 43 43 43 43 44 44 44 44 45 45 45 46 48 48 49 50 49 48 47 46 45 43 42 42 43 43 42 41 40 40 40 40 39 39 39 38 35 33 33 33 33 32 32 32 32 33 34 34 34 34 34 34 34 34 34 35 35 36 36
40 41 42 42 42 42 42 43 44 44 44 45 45 45 45 46 47 47 47 48 49 49 47 45 45 43 42 41 42 42 41 41 40 39 39 38 38 37 36 35 34 33 33 33 32 31 31 31 31 32 33 33 33 33 33 33 33 33 34 34 34 34 34
41 41 42 42 43 43 43 43 44 44 45 45 45 45 45 46 46 46 46 47 48 48 47 45 44 43 41 40 40 40 40 40 39 38 37 37 36 35 34 33 33 33 33 32 32 31 30 31 31 31 32 32 32 32 32 32 32 32 33 33 33 32 31
43 43 43 43 43 43 43 44 44 44 44 44 44 45 45 46 46 46 45 45 46 46 46 44 43 43 41 40 38 38 38 37 36 35 35 34 34 34 33 33 32 32 32 32 31 30 30 30 30 30 31 31 31 31 31 31 31 32 32 32 31 30 28
44 44 44 44 43 43 43 44 44 44 43 43 44 45 45 45 45 44 44 44 43 43 43 43 42 42 41 38 37 35 35 34 33 33 33 33 33 33 32 32 31 31 31 31 30 30 29 29 30 30 29 30 30 30 30 30 30 31 31 30 30 27 26
44 44 44 43 43 43 44 44 43 42 42 43 44 44 44 43 43 42 42 41 40 39 40 40 40 39 38 37 35 34 32 31 31 31 31 32 32 32 31 31 31 31 30 30 30 29 29 29 29 29 29 28 29 29 29 29 29 29 29 28 27 25 24
44 43 43 43 43 42 42 42 41 40 40 41 42 41 41 40 39 38 38 37 37 37 37 37 36 36 35 34 33 32 31 29 29 29 30 31 31 31 31 30 30 29 30 30 29 29 29 29 29 28 28 28 28 28 28 28 28 27 27 26 25 24 24
41 41 40 40 40 39 39 39 38 37 38 38 38 37 37 36 35 35 35 35 35 35 35 34 34 33 32 32 31 30 29 28 28 28 29 30 30 30 29 29 28 29 29 29 29 28 28 28 28 27 27 27 27 27 27 26 26 25 25 24 24 23 24
38 38 37 37 37 36 36 36 36 36 36 36 36 35 34 33 33 33 33 33 33 34 33 33 32 31 30 29 29 28 27 27 27 28 29 29 29 29 28 28 28 28 29 28 28 27 27 27 27 26 26 26 26 26 26 25 24 24 23 23 23 24 24
36 36 36 35 35 35 35 35 36 36 36 36 35 34 33 33 32 32 32 32 32 32 32 31 30 29 28 27 26 26 26 26 27 27 28 28 28 27 27 27 27 28 28 27 26 26 26 26 25 25 25 25 25 25 25 24 23 22 22 23 23 23 24
35 35 35 35 35 36 36 35 35 35 35 35 34 34 33 32 32 31 31 31 31 31 30 29 28 27 26 25 25 25 26 26 27 27 27 27 27 26 26 26 27 27 26 25 25 25 25 25 25 25 24 24 24 24 24 23 22 21 22 22 22 22 22
34 34 35 35 35 36 36 36 36 35 35 34 33 33 33 32 31 31 30 29 30 30 29 28 27 26 25 24 25 25 26 27 27 27 27 26 25 25 26 26 26 26 24 24 24 24 23 24 24 24 23 23 23 23 22 22 21 21 21 21 21 21 21
33 34 34 35 35 35 35 35 36 36 36 35 33 32 32 32 31 30 29 28 28 29 29 28 27 26 25 24 24 25 25 26 26 26 26 25 25 25 25 25 25 24 23 23 22 22 22 23 23 22 22 22 22 22 21 21 21 21 20 20 19 19 19
34 34 35 35 35 35 35 35 36 36 36 36 34 33 32 32 31 29 28 27 27 27 28 29 28 27 25 24 24 24 25 26 26 25 25 25 24 24 24 24 24 23 22 21 21 21 21 22 22 21 21 21 21 21 20 20 20 20 19 19 18 17 16
Wind_Direction
266 269 271 272 273 274 275 275 276 276 277 277 278 278 278 279 279 280 281 283 284 285 287 289 290 290 292 294 296 298 299 299 298 296 295 293 292 290 289 287 286 286 286 286 285 286 286 287 287 287 287 288 289 290 290 291 290 290 290 290 289 289 288
266 268 270 272 273 274 275 275 276 276 276 277 277 277 277 277 278 279 280 281 282 284 286 288 289 289 290 293 294 296 298 298 297 295 294 292 291 289 288 286 286 285 285 285 285 285 285 285 285 286 286 287 288 289 290 290 290 290 289 289 288 288 288
266 267 269 271 272 273 274 275 275 276 276 276 276 276 276 276 276 277 278 279 281 282 284 286 287 288 289 291 293 294 296 296 295 294 292 291 290 288 287 286 285 285 284 285 284 284 284 284 285 285 286 287 288 289 289 289 289 289 289 288 287 287 287
265 266 267 269 270 272 273 274 275 276 276 275 275 274 274 274 275 276 277 278 280 281 283 285 286 287 289 290 292 293 295 294 293 292 291 290 289 287 286 285 284 284 284 284 284 284 284 284 285 286 287 287 288 289 289 289 288 288 288 288 287 287 286
264 265 265 267 269 271 272 273 273 274 274 274 274 273 273 274 274 275 276 277 279 281 283 284 286 287 289 290 291 292 293 292 291 290 289 289 287 286 285 284 283 283 283 283 283 283 284 284 284 285 286 287 288 288 288 288 288 288 288 288 288 287 287
265 264 264 265 266 268 270 271 271 272 272 272 273 273 273 273 273 274 275 277 279 281 283 285 286 287 288 290 291 291 291 291 290 289 289 288 286 285 284 283 282 282 282 282 283 283 283 284 284 284 285 286 287 287 287 288 288 288 288 288 288 288 287
268 267 265 264 264 265 267 268 269 269 270 270 271 271 272 272 272 273 275 277 279 282 284 285 286 287 288 289 290 290 290 290 289 289 288 287 286 284 283 282 282 281 281 281 281 282 283 283 283 284 284 286 286 286 287 288 288 288 289 289 289 289 288
270 269 266 264 263 263 264 265 266 267 268 268 269 269 270 270 272 273 276 278 281 283 284 285 286 288 288 289 290 290 289 289 289 289 288 287 285 284 283 282 281 281 281 280 281 281 281 282 282 283 284 285 285 286 287 288 289 289 289 290 290 290 290
272 270 268 267 265 263 262 262 263 264 265 266 267 266 267 269 271 273 277 280 282 283 285 285 287 288 288 289 290 289 289 289 288 288 287 286 285 283 282 281 281 280 280 280 280 280 280 280 281 282 283 284 285 286 288 288 289 289 290 291 290 290 289
274 273 271 269 266 263 261 261 261 263 263 264 264 264 265 267 270 274 277 279 281 283 284 285 287 288 288 289 289 289 288 288 288 287 286 285 284 282 282 281 280 280 279 279 279 279 279 279 281 282 284 285 286 287 287 288 288 288 289 289 289 288 287
274 273 273 271 267 264 261 260 260 261 261 261 262 263 264 266 270 273 274 276 279 283 284 285 287 288 288 289 289 288 288 287 287 286 285 284 282 281 280 280 279 279 278 278 278 278 278 280 281 283 283 284 285 286 287 287 287 287 288 288 288 287 286
273 272 272 271 267 264 261 259 259 259 259 260 261 262 263 266 269 271 273 276 280 283 284 286 287 287 288 289 288 287 287 287 286 285 283 282 280 279 279 278 278 278 277 277 277 277 278 280 281 282 282 284 285 286 286 286 287 288 288 287 287 286 286
272 272 272 271 268 264 261 259 258 258 258 259 261 262 264 266 269 271 274 279 282 284 285 286 287 287 288 288 287 286 286 285 284 282 281 279 278 277 277 277 276 276 276 276 277 277 278 279 280 281 283 285 286 285 286 287 288 288 288 288 287 285 285
272 272 272 271 268 264 260 258 258 257 258 259 262 265 267 269 271 274 278 280 282 284 285 285 286 286 287 285 284 283 283 282 281 280 278 277 276 276 276 275 275 275 275 275 276 277 278 279 280 281 283 284 285 285 286 287 288 289 289 288 286 284 283
272 272 273 271 267 262 258 257 256 257 258 261 265 268 271 273 275 277 280 281 282 283 283 284 284 285 284 283 282 281 280 279 279 278 277 276 276 276 275 275 274 274 274 274 275 276 278 279 280 282 283 284 284 285 286 287 288 289 289 288 286 284 284
275 275 274 272 267 262 259 258 257 258 261 264 267 270 274 277 278 279 280 281 282 283 284 284 285 284 283 282 282 281 279 277 276 276 275 275 275 275 275 275 274 274 273 273 274 275 277 278 280 282 283 283 284 285 286 287 288 288 288 287 286 284 284
277 277 275 272 268 265 262 260 259 260 262 266 269 273 276 278 279 280 280 282 283 283 284 284 284 284 283 282 281 279 277 276 275 274 274 275 275 275 274 274 274 272 271 272 272 274 276 279 281 281 282 282 284 285 287 288 288 289 288 286 285 284 284
277 276 275 273 271 267 264 262 262 263 266 269 272 274 275 276 278 279 280 281 281 282 282 282 283 283 282 281 280 278 277 275 275 275 275 275 274 274 274 274 272 270 270 271 273 275 277 279 280 280 281 282 283 284 286 287 288 289 288 286 285 286 286
277 276 275 273 270 268 266 265 266 268 270 272 273 274 275 276 277 278 279 280 281 281 281 282 282 281 280 280 279 278 277 276 275 275 276 275 275 274 273 273 271 270 270 272 273 275 276 276 277 278 279 281 283 285 286 286 287 288 287 287 287 288 288
277 276 274 272 271 269 269 269 270 271 271 272 273 274 275 277 278 279 280 281 281 281 281 281 280 279 279 278 278 277 277 276 276 276 276 275 274 274 274 271 268 269 271 273 274 274 274 274 275 277 279 281 283 284 285 285 285 285 285 285 286 288 289
275 274 273 272 271 271 272 272 272 273 273 274 275 276 277 278 279 280 280 280 280 279 279 279 279 278 278 277 276 276 276 275 275 274 273 273 273 273 273 270 268 269 270 272 273 273 273 274 275 277 279 280 281 282 282 282 282 283 283 284 285 287 289
273 272 272 272 272 272 272 273 273 274 274 275 276 276 277 277 278 278 279 279 278 278 278 278 278 277 276 275 275 275 274 274 273 271 271 272 273 272 270 270 271 271 270 270 270 271 272 274 275 276 277 279 280 280 280 281 281 281 282 283 285 287 288
273 272 272 272 272 272 272 272 273 273 274 274 275 275 275 276 276 277 278 278 278 278 277 278 277 277 275 274 273 273 273 272 270 269 269 269 270 269 270 272 273 272 270 270 271 272 272 273 274 276 277 279 279 279 279 279 280 281 282 283 285 286 287
273 273 272 272 272 272 272 273 273 274 274 274 274 275 275 275 275 276 277 278 278 279 278 278 277 276 275 273 272 272 271 270 269 268 268 267 267 268 269 270 270 270 271 272 273 274 274 274 275 277 279 279 279 279 278 278 279 280 281 282 283 285 286
274 273 273 273 273 273 274 274 274 274 274 275 275 275 275 274 275 275 276 277 278 279 279 278 277 275 273 272 271 270 269 268 268 268 267 266 266 266 266 267 268 269 271 272 273 274 274 275 277 278 279 279 279 278 278 278 278 279 280 281 282 284 285
274 274 274 274 275 275 275 275 275 275 276 276 276 275 275 275 275 276 277 277 277 278 278 277 275 273 272 271 269 268 267 267 267 266 265 265 265 264 265 266 267 269 270 271 272 273 274 275 277 278 278 279 278 277 277 278 279 279 280 281 282 283 283
275 275 275 276 276 276 276 276 276 277 277 277 276 276 276 277 277 277 277 276 276 276 275 275 273 273 272 271 269 267 266 265 264 263 263 263 263 264 265 266 267 268 270 272 273 274 275 277 278 278 278 278 277 276 277 277 278 279 280 281 281 281 280
276 276 276 276 276 276 276 277 277 277 277 276 276 277 277 278 278 277 276 276 275 274 273 273 272 272 272 271 269 266 264 263 261 260 260 261 262 263 264 265 267 269 271 273 274 276 276 278 278 279 278 277 276 276 276 277 278 278 279 279 279 278 277
277 277 277 277 277 277 277 277 277 277 276 276 277 277 277 277 277 276 276 275 274 273 272 272 272 271 270 269 268 266 264 261 259 258 258 259 261 262 263 265 267 269 271 272 274 275 276 277 278 278 277 276 276 276 276 276 277 277 277 277 276 276 277
278 277 277 277 277 278 278 277 277 276 276 276 277 277 277 277 276 275 275 274 273 273 272 271 270 269 267 266 265 264 263 261 259 257 257 257 259 261 262 264 266 268 270 271 273 275 276 276 277 276 276 276 275 275 275 275 276 275 274 273 273 274 278
278 278 278 278 278 278 277 276 276 276 276 276 276 276 276 276 275 274 273 273 272 272 271 270 268 267 265 264 262 262 262 260 259 257 257 257 258 259 262 264 266 267 269 270 272 274 274 275 275 275 274 274 274 274 275 275 274 272 271 271 273 276 280
279 279 278 277 277 276 276 276 276 277 277 277 277 276 276 274 273 273 272 271 271 271 270 269 268 266 263 262 261 260 259 258 256 256 255 256 258 260 262 265 266 267 269 271 272 272 273 273 273 272 272 272 272 273 274 273 271 269 268 271 275 279 281
279 279 278 278 277 276 276 275 276 276 277 277 278 277 276 275 274 272 271 270 270 269 269 268 266 264 262 260 259 258 256 255 254 254 254 256 258 261 262 264 266 267 269 270 270 270 270 270 270 270 270 270 271 271 272 271 268 267 269 273 277 280 281
280 280 279 278 278 277 277 277 276 275 275 275 276 276 276 275 274 272 271 271 270 269 268 266 264 261 259 258 257 256 255 254 254 254 255 257 259 260 262 263 264 266 267 267 267 267 268 267 267 267 267 268 268 268 268 267 266 267 271 275 278 279 281
281 280 279 278 278 278 278 278 277 276 276 275 274 274 273 273 272 271 270 269 269 268 268 266 263 259 255 254 254 254 254 254 254 254 256 257 258 259 261 262 263 264 264 264 264 265 265 265 264 264 264 265 265 265 264 263 265 269 273 276 277 279 279
280 279 279 278 278 278 277 276 275 275 276 276 275 274 273 271 271 270 267 265 264 263 264 264 263 260 256 253 252 252 253 253 254 254 255 256 257 258 259 261 263 263 263 262 263 264 264 264 263 262 262 262 262 262 261 261 265 269 272 274 276 277 278